www.pogodaiklimat.ru
Время
(UTC), дата
00 13.10
03 13.10
06 13.10
09 13.10
12 13.10
15 13.10
18 13.10
21 13.10
00 14.10
03 14.10
06 14.10
09 14.10
12 14.10
15 14.10
18 14.10
21 14.10
00 15.10
03 15.10
06 15.10
09 15.10
12 15.10
15 15.10
18 15.10
21 15.10
00 16.10
03 16.10
06 16.10
09 16.10
12 16.10
15 16.10
18 16.10
21 16.10
00 17.10
03 17.10
06 17.10
09 17.10
12 17.10
15 17.10
18 17.10
21 17.10
00 18.10
03 18.10
06 18.10
09 18.10
12 18.10
15 18.10
18 18.10
21 18.10
00 19.10
03 19.10
06 19.10
09 19.10
12 19.10
15 19.10
18 19.10
Ветер
(напр.,м/с)
Видим. Явления Облачность Т
(С)
Тd
(С)
f
(%)
Тe
(С)
Тes
(С)
Комфортность P
(гПа)
Po
(гПа)
Тmin
(С)
Tmax
(С)
R
(мм)
R24
(мм)
S
(см)
С 5 4000 м слаб. снег 10/0 210 м
[As op]
-2.1 -2.3 99 -9 -9 тепло 993.6 990.8
С 8 20 км в посл. час снег 9/8 330 м
[Sc Ci fib]
-1.9 -2.8 94 -10 -10 тепло 995.3 992.5 2 10
С 10 20 км позёмок {снег} 10/10 400 м
[Sc]
-2.3 -3.2 94 -11 -11 по сезону 997.4 994.6
СВ 12
{15}
20 км позёмок 10/10 500 м
[Sc]
-3.2 -5.0 87 -13 -13 по сезону 1000.3 997.5
СВ 10
{17}
20 км позёмок 10/10 570 м
[Sc]
-4.1 -6.3 85 -14 -14 по сезону 1004.0 1001.1
СВ 11
{19}
20 км позёмок 6/6 540 м
[Sc]
-5.9 -7.6 88 -16 -16 по сезону 1007.7 1004.8
СВ 12-15
{17}
20 км позёмок 10/10 540 м
[Sc]
-7.2 -8.9 88 -18 -18 по сезону 1010.4 1007.5 -1.6
СВ 11
{16}
20 км позёмок 10/9 500 м
[Sc Ci fib]
-7.2 -10.6 77 -18 -18 по сезону 1013.0 1010.0
СВ 9
{15}
20 км позёмок 8/8 300 м
[Sc]
-7.4 -10.4 79 -17 -17 по сезону 1015.2 1012.3
СВ 8
{11}
20 км позёмок 4/3 300 м
[Sc Ci fib]
-7.6 -10.6 79 -17 -17 по сезону 1016.5 1013.6 7
СВ 6
{12}
20 км {метель} 6/3 600 м
[Sc Ac trans Ci fib]
-7.6 -10.5 80 -16 -16 по сезону 1017.4 1014.5
штиль 0 20 км 4/0
[Ac trans Ci fib]
-8.4 -11.5 78 -9 -9 тепло 1018.2 1015.3
ЮЗ 3 20 км 9/4 600 м
[Sc Ac As]
-8.5 -10.9 83 -14 -14 по сезону 1018.1 1015.1
З 7
{11}
20 км позёмок 10/8 500 м
[Sc Ac und]
-5.8 -8.7 80 -14 -14 по сезону 1016.8 1013.8
З 9
{14}
20 км позёмок 10/10 540 м
[Sc]
-4.9 -8.3 77 -14 -14 по сезону 1016.0 1013.1 -4.8
З 13
{17}
20 км позёмок 10/10 400 м
[Sc]
-4.0 -6.4 83 -14 -14 по сезону 1014.2 1011.3
З 11
{15}
4000 м слаб. снег {метель} 10/0 210 м
[As op]
-3.3 -5.5 85 -13 -13 по сезону 1014.0 1011.2
З 8
{15}
20 км позёмок {снег} 10/10 360 м
[Sc]
-2.7 -5.0 84 -11 -11 тепло 1014.1 1011.2 0.4 8
З 8
{13}
20 км позёмок {снег} 10/10 480 м
[Sc]
-3.0 -5.7 82 -11 -11 тепло 1014.2 1011.3
СЗ 6
{13}
2000 м слаб. ливневой снег {метель} 10/10 360 м
[Cb cap]
-3.8 -6.3 83 -11 -11 тепло 1015.2 1012.3
С 6
{11}
20 км позёмок {ливн. осадки} 10/10 420 м
[Sc]
-5.1 -7.0 86 -13 -13 по сезону 1015.9 1013.0
СЗ 3 2000 м слаб. ливневой снег {метель} 10/10 360 м
[Cb cap]
-6.0 -7.3 90 -12 -12 по сезону 1015.7 1012.8 0.2
ЮЗ 2 20 км {ливн. осадки, метель} 10/10 450 м
[Sc]
-5.2 -6.5 91 -10 -10 тепло 1015.4 1012.5 -2.5
СЗ 4
{10}
2000 м слаб. ливневой снег {метель} 10/10 400 м
[Cb cap]
-3.1 -4.2 92 -9 -9 тепло 1014.7 1011.8
СЗ 6
{13}
20 км позёмок {ливн. осадки} 4/4 300 м
[Sc]
-5.6 -8.4 81 -13 -13 по сезону 1015.2 1012.3 -6.0
СЗ 8
{11}
20 км позёмок 4/3 300 м
[Sc Ac trans Ci fib]
-7.7 -10.7 79 -17 -17 по сезону 1015.6 1012.7 0.2 5
З 4 20 км {метель} 6/3 600 м
[Sc Ac trans Ci fib]
-6.8 -9.5 81 -13 -13 по сезону 1016.4 1013.5
З 2 20 км 8/3 600 м
[Sc Ac As]
-6.7 -9.5 80 -11 -11 по сезону 1016.7 1013.7
ЮЗ 1 4000 м слаб. снег 10/10 240 м
[Frnb Ns]
-6.5 -8.3 87 -9 -9 тепло 1016.5 1013.5
ЮЗ 3 4000 м слаб. снег 10/0 210 м
[As op]
-4.0 -4.6 96 -10 -10 тепло 1015.2 1012.3 0.5
ЮЗ 7 4000 м слаб. снег 10/0 210 м
[As op]
-2.5 -3.7 91 -10 -10 тепло 1014.0 1011.1 -2.5
ЮЗ 9
{11}
4000 м слаб. снег {метель} 10/0 210 м
[As op]
-1.9 -2.7 94 -11 -11 по сезону 1012.7 1009.9
З 8
{11}
4000 м слаб. снег {метель} 10/0 240 м
[As op]
-1.8 -3.2 90 -10 -10 по сезону 1011.6 1008.8
ЮЗ 9
{11}
4000 м слаб. снег {метель} 10/0 210 м
[As op]
-2.1 -3.9 87 -11 -11 по сезону 1010.5 1007.6 1 4
ЮЗ 8
{11}
4000 м слаб. снег {метель} 10/0 210 м
[As op]
-3.0 -4.1 92 -11 -11 по сезону 1009.2 1006.3
ЮЗ 4 20 км {снег, метель} 9/4 300 м
[Sc Ac As]
-2.3 -4.0 88 -8 -8 тепло 1008.3 1005.4
ЮЗ 3 20 км {снег, метель} 10/8 500 м
[Sc Ac und]
-3.3 -4.6 91 -9 -9 тепло 1007.6 1004.7 -1.8
ЮЗ 5 4000 м слаб. снег 10/0 240 м
[As op]
-1.8 -2.2 97 -9 -9 тепло 1005.7 1002.8 1
З 3 20 км {снег} 8/3 300 м
[Sc Ac trans]
-3.1 -4.0 93 -8 -8 тепло 1005.0 1002.2 -1.5
ЮЗ 8
{11}
20 км позёмок 9/9 480 м
[Sc]
-2.2 -3.2 93 -10 -10 по сезону 1004.3 1001.4
ЮЗ 8
{11}
4000 м слаб. снег {метель} 10/8 210 м
[Frnb As op]
-1.5 -2.3 94 -10 -10 по сезону 1003.0 1000.1
ЮЗ 9
{12}
4000 м слаб. снег {метель} 10/8 240 м
[Frnb As op]
-1.1 -1.8 95 -9 -9 по сезону 1001.4 998.6 0.7 3
ЮЗ 8
{12}
4000 м слаб. снег {метель} 10/8 240 м
[Frnb As op]
-1.4 -2.8 90 -9 -9 по сезону 1000.4 997.6
З 6
{12}
20 км позёмок {снег} 9/5 540 м
[Sc Ac trans]
-1.8 -3.3 89 -9 -9 по сезону 999.8 997.0
З 8
{12}
20 км позёмок {снег} 4/3 600 м
[Sc Ac trans]
-5.2 -6.8 88 -14 -14 по сезону 1000.6 997.8 -0.8
С 4 20 км {метель} 4/0
[Ac trans Ci fib]
-6.3 -8.6 84 -13 -13 по сезону 1001.6 998.7 0.4
В 8 20 км позёмок 9/6 500 м
[Sc Ac As]
-5.6 -7.6 86 -15 -15 по сезону 1001.0 998.2 -0.8
В 11
{14}
20 км позёмок 9/9 540 м
[Sc]
-6.8 -7.5 95 -17 -17 по сезону 999.3 996.5
СВ 13
{17}
4000 м слаб. снег {метель} 10/8 240 м
[Frnb As op]
-6.5 -7.2 95 -18 -18 прохладно 997.0 994.1
СВ 16
{20}
4000 м слаб. снег {метель} 10/8 240 м
[Frnb As op]
-5.8 -6.6 94 -18 -18 прохладно 994.0 991.1 0.5 4
В 17
{21}
4000 м слаб. снег {метель} 10/0 240 м
[As op]
-4.3 -5.1 94 -16 -16 по сезону 990.9 988.0
В 10
{21}
4000 м слаб. снег {метель} 10/0 210 м
[As op]
-1.3 -1.9 96 -10 -10 по сезону 988.9 986.2
В 9
{13}
20 км позёмок {снег} 9/9 540 м
[Sc]
-1.1 -2.1 93 -9 -9 по сезону 986.9 984.1
ЮВ 7
{11}
20 км позёмок 8/6 570 м
[Sc Ac trans]
-1.6 -1.8 99 -9 -9 по сезону 986.0 983.2 0.7
ЮВ 5 500 м туман ?/? -2.0 -2.1 99 -9 -9 по сезону 986.0 983.2 -0.9
Местоположение метеостанции Остров Хейса (Архангельская область, Россия): широта 80.62 долгота 58.05 высота над уровнем моря 25 м.
В архиве по умолчанию представлена погода на Острове Хейса за последнюю неделю. Архивные данные за месяц целиком и за предыдущие месяцы, начиная с января 2011 года, Вы можете получить, выбрав интересующий диапазон дат из раскрывающегося списка и нажав кнопку "Найти!".
*Определитесь, кто Вы:
Внимание! Время в таблицах - всемирное. Для получения местного времени необходимо прибавить поправку, которая равна 3 ч.
Смотрите также архив погоды в соседних городах и на ближайших метеорологических станциях:
Партнеры нашего сайта:      
Пояснения к столбцам:
  • Ветер - указаны скорость ветра в м/с - средняя за 10 мин, порывы в срок и между сроками (в фигурных скобках) и направление, откуда дует ветер: С - северный,
  • СВ - северо-восточный, В - восточный, ЮВ - юго-восточный, Ю - южный, ЮЗ - юго-западный, З - западный, СЗ - северо-западный.
  • Видимость - горизонтальная дальность видимости в метрах или километрах. При видимости от 1 до 10 км при отсутствии осадков обычно наблюдается дымка, при ухудшении видимости до 1 км и менее - туман. В сухую погоду видимость может ухудшаться дымом, пылью или мглою.
  • Явления - указаны атмосферные явления, наблюдавшиеся в срок или в последний час перед сроком; фигурными скобками обозначены явления, наблюдавшиеся между сроками (за 1-3 часа до срока); квадратными скобками обозначены град или гололедные отложения с указанием их диаметра в мм.
  • Облачность - указаны через наклонную черту общая и нижняя облачность в баллах и высота нижней границы облаков в метрах; квадратными скобками обозначены формы облаков: Ci - перистые, Cs - перисто-слоистые, Cc - перисто-кучевые, Ac - высококучевые, As - высокослоистые, Sc - слоисто-кучевые, Ns - слоисто-дождевые, Cu - кучевые, Cb - кучево-дождевые. Подробнее классификацию облаков см. в Атласе облаков (PDF).
  • T - Температура воздуха - температура, измеренная на высоте 2 м над землей.
  • Td - Температура точки росы - температура, при понижении до которой содержащийся в воздухе водяной пар достигнет насыщения.
  • f - Относительная влажность воздуха - влажноcть воздуха, измеренная на высоте 2 м над землей.
  • Te - Эффективная температура - температура, которую ощущает одетый по сезону человек в тени. Характеристика душности погоды. При расчете учитывается влияние влажности воздуха и скорости ветра на теплоощущения человека.
  • Tes - Эффективная температура на солнце - температура, которую ощущает человек, с поправкой на солнечный нагрев. Характеристика знойности погоды. Зависит от высоты солнца над горизонтом, облачности и скорости ветра. Ночью, в пасмурную погоду, а также при ветре 12 м/с и более поправка равна нулю.
  • P - Атмосферное давление - приведенное к уровню моря атмосферное давление.
  • Po - Атмосферное давление - измеренное на уровне метеостанции атмосферное давление.
  • Tmin - Минимальная температура - минимум температуры воздуха на высоте 2 м над землей.
  • Tmax - Максимальная температура - максимум температуры воздуха на высоте 2 м над землей.
  • R - Количество осадков - Количество выпавших осадков за период времени, мм. При наведении курсора мыши на число - период времени, за который выпало указанное количество осадков.
  • R24 - Количество осадков - Количество выпавших осадков за 24 часа, мм.
  • S - Снежный покров - Высота снежного покрова, см. При наведении курсора мыши на число - состояние снежного покрова и степень покрытия местности в баллах.